This is the latest recevied weather packets stored in our database for station/object VE3EP-1. If no packets are shown the sender has not sent any weather packets the latest 10 day(s).
| Time | Temp. | Humidity | Pressure | Rain* | Wind** | Luminosity | Snow |
|---|---|---|---|---|---|---|---|
| 1777684928 | 4.44° C | 86% | 1015.3 hPa | 0 mm | - | - | - |
| 1777684331 | 4.44° C | 85% | 1015.4 hPa | 0 mm | - | - | - |
| 1777683729 | 5° C | 83% | 1015.1 hPa | 0 mm | - | - | - |
| 1777683128 | 5° C | 81% | 1015.1 hPa | 0 mm | - | - | - |
| 1777682528 | 5° C | 80% | 1015.2 hPa | 0 mm | - | - | - |
| 1777681928 | 5° C | 82% | 1014.9 hPa | 0 mm | - | - | - |
| 1777681328 | 5.56° C | 81% | 1015 hPa | 0 mm | - | - | - |
| 1777680728 | 5.56° C | 81% | 1014.8 hPa | 0 mm | - | - | - |
| 1777680128 | 5.56° C | 80% | 1014.7 hPa | 0 mm | - | - | - |
| 1777679528 | 5.56° C | 78% | 1014.7 hPa | 0 mm | - | - | - |
| 1777678928 | 5.56° C | 78% | 1014.6 hPa | 0 mm | - | - | - |
| 1777677728 | 5.56° C | 78% | 1014.6 hPa | 0 mm | - | - | - |
| 1777676529 | 5.56° C | 78% | 1014.7 hPa | 0 mm | - | - | - |
| 1777675329 | 5.56° C | 76% | 1014.6 hPa | 0 mm | - | - | - |
| 1777674729 | 6.11° C | 73% | 1014.8 hPa | 0 mm | - | - | - |
| 1777674129 | 6.11° C | 73% | 1014.9 hPa | 0 mm | - | - | - |
| 1777670529 | 6.11° C | 67% | 1014.5 hPa | 0 mm | - | - | - |
| 1777669928 | 6.11° C | 66% | 1014.5 hPa | 0 mm | - | - | - |
| 1777669329 | 6.67° C | 67% | 1014.5 hPa | 0 mm | - | - | - |
| 1777668729 | 6.11° C | 66% | 1014.4 hPa | 0 mm | - | - | - |
| 1777668129 | 6.67° C | 66% | 1014.4 hPa | 0 mm | - | - | - |
| 1777667529 | 6.11° C | 66% | 1014.3 hPa | 0 mm | - | - | - |
| 1777666929 | 6.67° C | 63% | 1014.6 hPa | 0 mm | - | - | - |
| 1777662128 | 7.22° C | 57% | 1014.9 hPa | 0 mm | - | - | - |
| 1777661528 | 7.22° C | 53% | 1015.2 hPa | 0 mm | - | - | - |
* Rain latest hour (hover to see other rain measurements)
** Current wind speed in m/s (hover to see current wind gust speed)